Location: Boiro
(42.6475°N, 8.8834°W)
Time: 00:30:26
(UTC+01:00)

A-11 Canister half - Pass Details

Date: 06 December 2021
Orbit: 1516 x 1684 km, 47.2° (Epoch: 18 January)

Event Time Altitude Azimuth Distance (km) Brightness Sun altitude
Rises 09:28:04 0° 256° (WSW) 4,764 11.2 4.8°
Reaches altitude 10° 09:31:07 10° 259° (WSW) 3,803 10.7 5.3°
Maximum altitude 09:40:52 76° 345° (NNW) 1,681 9.3 6.7°
Drops below altitude 10° 09:50:59 10° 71° (ENE) 3,929 11.6 8.1°
Sets 09:54:12 0° 74° (ENE) 4,929 12.1 8.5°
